Location: La Coruña
(43.3623°N, 8.4115°W)
Time: 02:54:27
(UTC+01:00)

STARLINK-1072 - Pass Details

Date: 19 January 2020
Orbit: 349 x 351 km, 53.0° (Epoch: 17 February)

Event Time Altitude Azimuth Distance (km) Brightness Sun altitude
Rises 20:33:45 0° 278° (W) 2,170 8.0 -22.6°
Reaches altitude 10° 20:36:13 10° 299° (WNW) 1,329 6.3 -23.0°
Enters shadow 20:37:26 16° 322° (NW) 1,053 5.4 -23.3°
